CARTOSAT 2B

导读

CARTOSAT 2B是印度空间研究组织(ISRO)研制的制图卫星,于2010年7月12日成功发射。作为印度先进遥感卫星系列代表,它搭载高分辨率光学相机,地面分辨率可达米级,主要服务于国土测绘、城市规划、资源监测、基础设施建设等领域,为印度地理空间信息获取和国防安全提供重要支撑,拓展了印度在高分辨率对地观测领域的能力。

Basic Information
目录编号:
36795
目录名称:
CARTOSAT 2B
国际标识:
2010-035A
轨道中心:
EARTH
卫星名称:
CARTOSAT 2B
卫星全名:
--
卫星状态:
在轨 (已飞行5899 天)
发射日期:
2010-07-12 UTC
国别 :
印度 (IN)
星等 :
--
Orbit Information
数据来源 国际轨道数据 AOE轨道数据
星历时间 2026-09-05T12:34:46+0800
5小时前
查看轨道信息
2026-09-03T23:00:00+0800
1天前
查看轨道信息
半长轴 7011.83km 7011.814km
偏心率 0.0010179 0.0011394
轨道倾角 97.988° 97.992°
近地点辐角 296.975° 308.276°
升交点赤经 298.198° 296.642°
平近点角 63.042° 1.975°
近地点 626.555km 625.687km
远地点 640.831km 641.667km
周期 97.388分钟 97.388分钟
每日圈数 14.786173 14.786221
Detailed Information
使用方式:
暂无
2D Orbit Map
3D Orbit Map
Orbit Altitude Analysis Chart
Orbit Inclination Analysis Chart
Orbit Comprehensive Analysis Chart
View Comprehensive Chart
Conjunction Data List
Event ID Objects TCA Miss Dist (km) Collision Risk Probability Collision Risk Index (CRI) Action
CDM_260903-063803-561403-679523
2026-09-03T
06:38:06+0000
2.463 km
极远距离
1.692709E-6 低风险 0.4
CDM_260905-194203-349603-679524
2026-09-05T
19:42:37+0000
2.681 km
极远距离
1.526338E-6 低风险 0.39
CDM_260907-014903-679506-894921
2026-09-07T
01:49:37+0000
2.755 km
极远距离
1.390281E-6 低风险 0.38
CDM_260907-030503-679506-482421
2026-09-07T
03:05:58+0000
2.919 km
极远距离
1.150813E-6 低风险 0.36